GFSSGP_500_spd_177.txt.gz
Wind_Speed
13 15 9 5 5 14 11 14 9 7 5 7 8 3 5 9 5 8 15 16 17 24 20 17 16 16 16 15 16 15 14 13 11 10 9 8 8 9 9 10 10 11 12 12 12 14 16 16 17
16 15 7 13 26 14 10 8 5 5 6 4 9 9 6 1 0 7 11 12 15 20 20 17 14 15 16 15 14 13 12 10 9 9 8 6 6 7 7 8 8 8 8 10 11 11 13 13 13
9 8 3 7 14 11 13 6 3 6 4 2 4 4 5 7 10 12 18 13 16 16 17 19 14 14 14 12 11 10 9 8 7 6 5 4 3 4 5 6 6 5 6 8 8 8 10 9 9
8 4 13 19 18 12 9 6 5 6 3 2 1 3 6 8 10 15 13 17 16 16 20 17 13 13 13 11 10 8 7 7 6 4 3 3 0 0 2 3 4 3 5 6 7 8 9 8 8
19 7 16 16 16 12 9 7 7 6 0 2 1 2 3 4 4 13 9 7 10 14 12 14 13 12 11 10 8 7 6 6 5 5 5 3 3 1 0 1 2 3 3 4 6 6 8 9 11
6 20 14 15 17 9 3 7 5 6 1 3 4 2 1 1 2 14 11 8 8 9 8 7 10 9 9 10 8 8 7 7 7 6 7 4 3 2 1 1 2 3 4 5 6 7 6 8 11
24 24 14 14 8 11 9 8 6 4 2 2 4 4 2 0 2 5 10 9 6 9 6 9 1 7 9 9 5 9 12 11 10 10 8 6 5 3 1 2 5 5 7 9 8 10 9 8 11
18 21 15 8 7 10 11 13 10 3 2 3 3 6 5 4 4 5 5 6 6 1 2 5 11 10 9 5 4 5 11 13 13 10 8 6 5 4 4 8 9 9 13 12 12 14 13 15 17
14 9 2 9 8 9 10 11 10 10 6 1 3 5 5 6 5 5 3 6 7 2 2 8 12 8 7 6 7 4 4 6 11 10 7 9 5 4 6 7 9 12 16 13 15 16 17 16 16
2 7 6 5 6 4 7 7 11 9 8 6 4 1 4 5 5 5 5 5 1 1 11 8 4 5 3 2 7 4 3 2 7 9 11 6 4 5 10 12 15 10 14 14 18 21 22 17 12
10 9 4 2 4 4 3 9 8 10 9 8 5 4 3 1 4 4 3 3 6 5 6 3 5 4 8 5 5 1 6 6 5 7 4 1 4 6 14 14 9 9 11 14 17 19 10 6 8
10 9 1 2 3 3 3 7 9 9 8 8 7 5 3 3 3 4 5 7 5 6 10 8 5 7 10 9 6 10 4 11 6 6 5 5 7 10 11 14 12 10 10 14 18 13 12 9 9
5 2 2 3 3 1 3 7 8 8 9 9 10 10 9 10 8 7 7 6 7 7 12 11 10 9 6 3 10 10 7 6 7 8 4 6 8 7 7 8 10 12 12 10 14 10 10 11 11
1 5 3 3 4 3 5 7 8 7 9 11 12 13 13 12 13 13 13 12 12 12 12 12 12 14 16 15 11 11 13 6 8 8 10 11 12 11 10 10 13 14 14 14 11 10 10 12 14
4 5 5 4 3 8 7 7 9 8 10 12 14 14 14 13 15 15 16 17 17 16 15 15 16 15 15 15 13 15 12 10 12 12 12 13 12 13 12 11 13 13 11 12 12 13 13 14 11
12 5 7 9 4 6 6 9 9 8 10 9 11 15 17 18 17 19 19 20 20 19 17 17 17 15 13 12 12 15 14 14 15 14 13 12 10 10 9 8 9 12 13 13 13 14 12 12 13
7 7 4 7 12 10 6 12 6 7 8 9 13 15 18 19 19 19 20 20 20 19 18 18 18 15 9 7 12 13 14 17 18 20 19 20 16 11 6 6 8 10 12 13 15 16 16 18 18
16 24 14 13 10 6 13 8 6 4 6 10 13 14 16 15 16 17 17 18 18 18 16 15 14 16 11 10 12 12 14 17 18 18 18 22 24 12 3 8 10 10 13 14 16 19 17 15 17
8 28 20 20 7 10 12 6 7 6 2 8 11 12 13 12 13 13 14 16 16 17 18 18 21 20 25 19 15 15 17 17 16 15 16 22 25 25 17 13 14 16 17 18 17 17 19 18 19
4 21 22 17 10 8 4 11 13 9 4 4 9 12 13 13 14 13 14 15 15 17 20 18 17 21 22 21 18 17 17 17 17 17 19 20 21 20 18 16 16 16 18 19 19 17 18 21 22
7 17 22 15 10 3 4 8 12 11 7 4 7 9 15 13 11 14 16 16 16 17 16 16 16 17 18 19 17 16 16 17 18 19 21 21 22 19 19 23 21 15 18 22 22 22 21 23 26
11 16 10 9 8 5 5 11 8 9 9 3 7 9 11 13 17 18 18 17 17 15 14 12 14 16 17 15 14 14 15 16 19 20 20 23 22 22 22 24 19 20 24 15 19 22 24 23 22
8 3 12 10 10 8 9 15 9 8 12 5 6 11 11 15 19 23 19 17 15 14 13 13 12 12 11 12 13 16 17 18 19 21 24 26 26 27 27 29 18 25 28 26 20 22 23 24 24
10 10 15 14 12 13 16 12 16 14 3 6 3 10 12 12 14 12 12 15 12 12 10 9 10 10 12 14 15 15 15 15 19 23 26 30 32 28 26 27 27 28 25 26 27 26 26 27 29
24 21 22 22 15 12 12 18 17 17 13 4 4 6 10 11 10 8 7 8 8 8 8 10 11 11 11 12 13 13 14 17 20 24 28 31 34 34 32 31 31 29 31 31 28 28 29 32 34
27 27 17 9 15 10 7 10 15 18 18 8 5 7 5 7 9 7 5 5 6 6 6 7 7 8 10 11 12 14 15 18 21 25 29 29 32 34 34 34 33 32 32 30 29 31 33 35 37
27 34 20 13 15 7 7 14 16 18 15 10 7 9 8 4 3 8 6 3 4 5 7 8 9 10 12 13 14 16 16 19 22 26 26 28 28 32 34 34 33 31 31 31 32 33 36 39 40
35 35 30 30 26 22 11 18 19 17 17 12 12 9 9 8 5 3 2 3 1 3 6 9 11 13 14 14 14 16 18 20 22 23 26 26 27 32 33 34 33 33 32 31 33 36 40 44 45
40 42 38 34 33 26 18 14 14 21 16 13 14 14 10 12 9 7 6 4 5 7 7 7 12 14 15 16 15 17 20 21 23 24 27 27 29 31 35 35 33 34 35 38 42 42 44 45 46
35 43 38 36 35 26 23 23 27 23 19 19 19 20 20 13 13 11 10 8 6 8 10 12 13 15 16 15 15 17 20 21 22 22 26 29 32 34 41 38 42 42 40 39 40 46 47 46 49

GFSSGP_500_spd_183.txt.gz
Wind_Speed
13 18 16 13 13 12 17 15 14 13 18 15 11 9 12 10 9 11 17 11 11 12 11 9 7 6 5 6 6 6 6 5 3 3 5 6 6 7 7 9 9 10 11 13 13 13 14 15 15
15 15 13 12 6 9 9 12 10 11 13 11 12 7 7 12 5 10 9 15 11 10 11 10 8 6 5 4 3 2 1 2 2 4 5 6 7 8 8 9 10 11 12 13 13 12 13 14 14
12 12 9 7 10 11 10 9 10 10 9 10 7 8 5 6 4 9 4 8 12 12 9 7 6 6 6 4 2 1 2 3 4 4 5 5 7 9 10 10 11 12 13 13 14 14 14 14 13
10 9 9 12 14 13 9 7 11 9 9 9 8 11 12 10 10 13 10 11 16 11 11 8 7 6 5 4 3 2 3 3 4 5 6 7 8 10 8 9 11 11 12 12 12 12 13 13 13
3 10 13 18 17 12 12 7 7 9 10 10 9 8 10 12 12 20 14 14 11 11 12 10 5 6 4 5 4 4 4 4 3 4 3 3 5 5 5 6 7 7 7 8 10 10 9 8 7
7 9 17 19 14 11 9 9 7 9 12 10 10 7 8 9 11 17 14 13 12 12 9 7 5 5 6 5 6 6 6 6 6 5 5 5 6 3 3 5 8 9 12 13 16 11 15 7 4
6 8 16 17 18 14 12 7 6 6 8 10 7 5 8 11 9 8 14 10 10 9 7 4 6 6 7 8 9 9 10 9 8 7 7 7 5 4 7 6 9 10 14 15 15 13 15 15 12
9 12 16 17 17 17 15 11 6 4 3 5 7 5 8 9 9 7 14 12 11 9 4 5 6 6 7 8 7 8 9 9 9 10 11 9 9 8 10 9 13 13 14 13 14 16 14 12 16
5 10 16 17 17 13 12 10 11 9 5 2 5 6 6 9 7 6 10 12 11 7 5 10 8 4 3 3 1 3 4 6 9 11 14 11 13 8 10 13 17 14 7 10 11 17 10 3 6
4 10 16 19 14 10 6 8 11 9 7 5 3 5 6 7 8 7 5 7 8 7 13 11 9 7 7 6 4 1 2 5 7 8 10 9 7 7 10 13 8 5 10 12 9 14 18 13 12
9 14 15 15 13 8 9 11 10 10 9 7 3 4 6 9 8 8 6 6 5 13 13 10 7 6 6 8 5 8 10 8 9 8 10 10 9 8 9 12 11 8 11 8 11 13 15 14 13
13 14 13 14 13 10 8 9 8 9 8 8 7 4 7 8 10 9 9 13 11 11 5 9 8 8 7 3 4 3 8 11 12 12 9 9 11 11 12 20 21 13 8 8 10 10 12 11 13
13 12 13 12 13 12 8 10 8 9 8 9 8 7 9 10 13 11 11 12 10 9 12 12 13 10 9 6 9 10 12 13 13 11 8 9 12 11 12 15 15 17 15 11 14 14 14 15 15
12 7 6 11 11 15 12 13 10 10 9 12 10 11 12 11 13 12 12 12 15 13 11 11 12 15 11 12 15 15 14 13 12 11 9 7 6 8 11 12 14 15 15 15 13 13 13 14 12
12 9 6 9 10 16 13 13 12 10 10 11 12 12 14 16 16 16 16 16 16 15 15 16 19 17 15 16 17 16 16 16 17 19 14 5 2 4 7 10 12 11 11 11 11 13 15 13 13
11 10 9 6 3 10 12 15 14 8 8 12 13 13 14 15 17 18 18 17 17 16 18 20 21 19 19 18 16 18 18 17 19 24 26 19 7 9 12 12 12 12 13 12 12 15 16 16 16
6 7 10 8 5 7 11 16 15 11 6 11 16 17 17 18 20 21 20 19 18 18 18 20 19 20 18 17 18 18 17 19 19 22 22 20 18 15 11 12 10 13 15 16 16 17 17 17 17
8 8 12 12 12 12 13 14 16 13 9 10 15 17 19 20 20 21 20 19 18 15 18 18 18 19 17 18 16 18 17 19 19 20 19 19 17 15 13 14 13 13 23 20 17 17 17 17 18
16 13 13 11 13 16 15 13 15 14 10 7 11 16 17 17 18 18 18 18 19 19 22 23 21 20 19 16 17 19 20 20 19 19 19 20 19 18 15 22 18 14 18 19 21 19 17 18 18
14 19 15 16 14 15 15 13 12 12 11 8 7 12 16 18 17 16 18 20 21 20 22 24 23 21 18 18 17 19 20 21 20 20 24 24 22 21 23 19 23 24 23 21 25 23 23 22 20
17 23 24 19 14 16 19 15 11 6 7 9 7 10 12 15 18 18 20 19 18 19 19 20 20 19 18 18 18 19 21 21 22 23 26 26 27 27 28 27 26 25 24 25 25 24 24 24 28
23 29 24 18 19 13 15 16 14 9 5 5 9 8 11 16 16 18 19 20 17 18 18 17 17 16 17 17 17 18 19 21 23 23 24 26 27 27 28 27 27 27 26 27 28 27 25 26 28
27 24 19 14 16 19 17 18 18 19 16 3 8 6 12 19 19 20 17 17 17 16 15 14 14 14 16 15 16 15 17 22 24 24 25 25 26 27 29 29 29 28 25 25 26 27 29 30 31
30 29 27 25 18 18 14 9 17 14 13 6 7 8 20 24 19 18 17 16 16 15 14 13 11 12 12 13 14 14 17 19 21 21 23 22 24 25 28 31 34 36 37 32 31 32 31 31 32
39 34 32 25 18 14 9 9 13 14 6 11 8 13 18 22 23 18 15 13 14 13 12 11 11 11 11 10 13 13 16 17 19 20 21 22 23 24 29 33 37 41 42 35 34 37 37 35 37
34 37 31 24 17 15 14 16 4 7 4 5 6 12 12 18 18 16 14 13 12 12 10 9 8 8 9 11 11 13 15 16 17 17 20 22 23 26 29 33 36 38 42 44 41 40 40 39 43
32 42 20 23 22 17 12 12 14 4 6 6 9 12 13 13 15 14 12 10 8 7 7 5 5 7 8 10 10 11 13 14 14 15 18 19 22 27 33 32 36 40 40 44 42 44 42 41 41
40 25 25 31 25 19 21 18 10 11 7 7 16 12 11 12 12 10 9 8 6 3 3 3 4 5 7 8 8 9 10 11 11 13 18 21 20 29 35 37 38 44 45 46 47 49 42 39 39
44 39 34 30 26 25 29 23 23 18 10 8 8 11 12 8 9 8 7 6 4 1 1 3 5 7 7 7 7 8 10 9 11 14 17 22 25 28 35 41 40 45 49 47 51 47 46 43 42
46 39 34 36 33 31 31 30 23 22 20 14 6 5 5 10 8 7 4 3 1 1 3 4 6 8 9 8 7 9 11 12 13 16 20 23 26 30 34 40 45 47 52 51 51 49 52 48 45

GFSSGP_500_spd_186.txt.gz
Wind_Speed
19 13 11 10 14 17 13 14 14 14 16 18 15 15 17 14 10 11 15 12 12 8 8 8 7 6 6 6 7 7 6 7 6 6 9 6 6 7 9 10 12 13 13 13 13 13 13 13 13
13 12 10 9 11 14 16 11 14 14 13 14 12 9 13 12 6 5 12 12 12 9 5 6 6 6 6 5 5 4 3 4 4 4 6 5 5 8 8 10 11 10 10 10 10 10 10 10 10
12 10 7 3 9 11 11 10 12 12 11 9 6 8 10 11 2 7 3 8 12 9 6 3 3 4 4 3 2 2 3 3 4 3 4 4 5 8 9 10 10 9 8 7 7 7 6 7 7
6 9 9 10 11 13 10 11 10 12 11 11 10 11 10 11 3 8 8 8 7 8 6 3 2 2 2 2 3 4 6 7 7 8 7 7 7 9 7 9 9 8 9 8 9 9 7 5 3
10 11 10 10 12 11 11 10 7 9 11 11 12 9 12 13 12 11 13 13 6 8 6 2 2 1 1 3 3 6 9 9 9 8 7 7 7 10 9 10 9 10 11 13 15 13 10 10 4
13 13 7 11 12 11 12 9 8 7 9 11 11 12 11 12 15 13 15 12 8 6 5 4 2 0 2 2 4 6 8 5 9 12 8 7 11 7 5 11 11 11 11 13 14 15 13 14 13
9 10 8 12 14 12 10 9 8 7 8 10 11 10 12 13 15 9 12 10 10 8 6 4 2 2 2 3 4 8 12 7 9 9 10 12 10 5 8 13 15 15 13 13 13 15 16 16 14
9 11 11 13 16 15 13 12 9 7 7 6 9 8 11 14 12 9 9 11 11 8 4 3 5 4 3 4 6 8 11 10 10 14 14 11 13 7 8 15 16 20 13 7 13 21 16 8 11
10 10 9 11 15 14 14 12 11 10 7 6 7 9 6 15 12 9 12 13 10 6 3 6 4 3 3 1 3 6 8 8 9 10 13 11 9 8 9 15 13 6 10 12 12 15 17 16 13
7 9 9 10 14 15 11 10 9 8 7 5 6 8 8 10 13 10 11 11 10 6 8 7 5 5 5 3 5 7 6 6 6 7 9 12 13 14 14 13 11 9 11 11 13 13 14 17 16
11 11 11 12 12 11 9 8 8 6 6 5 6 7 13 11 12 11 11 11 9 8 13 7 5 5 6 6 7 9 9 7 8 8 11 13 14 13 13 22 14 11 10 10 11 13 14 15 16
12 13 13 13 11 10 8 9 7 5 4 5 5 7 9 16 14 13 12 11 11 14 10 5 5 7 6 2 7 6 6 7 9 11 12 13 9 10 13 15 15 13 9 10 10 10 12 14 14
13 15 14 14 12 9 7 9 8 4 4 4 5 7 7 12 15 13 12 14 14 10 6 10 8 9 7 8 9 9 10 9 8 8 8 9 11 12 12 14 13 12 12 11 11 11 12 13 13
14 11 11 10 13 11 9 11 9 7 6 7 9 7 7 13 16 14 14 13 12 11 11 14 11 11 13 13 13 12 11 13 12 10 5 6 10 12 11 12 12 12 13 14 15 17 19 18 15
5 11 9 9 8 10 12 11 10 8 6 6 8 10 11 16 16 14 13 15 16 14 14 14 13 15 16 15 15 13 14 18 21 21 18 13 9 10 8 8 11 13 14 14 16 16 15 14 14
6 5 7 8 6 6 11 11 8 9 8 6 7 10 13 16 17 17 17 16 18 16 17 20 18 18 17 16 17 15 16 18 20 20 19 18 12 11 13 15 13 14 19 19 18 18 17 17 16
10 8 8 7 3 4 9 12 9 10 9 7 8 11 14 16 17 17 19 19 18 21 22 21 20 20 19 18 18 17 16 16 18 20 23 19 15 15 18 13 10 16 18 21 18 19 17 19 16
8 8 8 8 6 7 10 13 12 11 9 11 9 13 17 19 20 20 20 20 20 22 22 21 21 19 19 18 18 16 17 18 20 21 19 17 18 16 19 16 14 17 18 21 20 19 19 19 18
14 12 13 9 10 12 13 14 13 13 11 10 8 14 18 21 20 20 20 17 19 24 22 21 20 19 17 19 18 17 19 22 21 19 18 18 19 18 15 17 19 20 22 24 23 22 20 18 20
10 16 24 16 16 14 15 15 14 14 12 12 8 11 15 18 19 19 18 18 21 28 26 23 20 19 19 19 19 18 20 21 21 21 20 21 23 24 23 22 24 23 21 22 21 21 21 22 21
10 16 19 19 17 16 14 15 15 14 12 12 11 10 12 14 17 22 23 20 23 25 26 23 21 19 19 19 19 18 18 21 18 17 19 21 22 23 23 23 25 26 23 22 22 21 23 23 25
19 19 23 20 20 16 12 12 11 13 12 11 12 11 12 15 17 20 23 22 23 23 22 21 20 19 19 18 16 17 18 18 17 18 21 22 23 23 25 27 32 39 36 29 27 26 27 27 26
8 18 24 23 22 17 14 14 16 12 10 11 11 11 10 15 20 20 22 21 22 21 20 19 18 17 16 15 16 14 15 16 18 19 21 22 23 24 29 31 36 35 38 36 34 33 32 31 29
15 24 28 29 27 21 17 15 13 12 10 10 9 8 13 18 21 20 18 18 19 19 18 16 15 15 13 13 13 11 13 17 18 19 19 21 22 25 26 30 35 37 35 39 35 36 36 34 32
29 31 32 29 30 18 17 17 12 7 8 12 8 11 22 21 22 22 19 17 17 17 16 15 14 12 11 11 11 10 13 15 17 18 18 19 21 26 28 31 32 34 40 37 39 37 40 36 31
35 38 34 29 29 22 21 19 10 4 2 15 16 17 22 21 22 21 18 16 14 15 13 13 12 10 9 8 7 10 12 14 16 16 16 16 21 26 31 34 33 38 40 44 38 36 37 40 36
44 44 31 30 27 27 27 22 15 7 6 14 17 15 19 19 16 17 16 14 12 11 10 9 8 7 5 6 8 10 11 13 14 15 17 16 20 25 29 35 37 39 42 45 43 37 38 40 42
40 36 35 36 32 33 32 26 18 7 4 15 16 17 17 15 12 13 14 12 9 7 6 6 4 3 4 6 7 8 10 10 12 13 14 18 21 25 28 32 36 39 44 45 44 40 41 45 47
51 50 41 36 33 34 34 29 18 14 9 9 14 15 13 12 12 13 11 9 7 5 4 3 3 3 5 8 8 7 8 9 10 13 15 19 23 26 28 31 34 40 43 46 47 43 42 44 47
48 38 47 40 38 40 36 31 23 20 18 9 13 9 14 14 14 14 12 9 6 4 3 3 2 3 6 7 8 7 8 10 11 14 17 21 25 28 29 30 35 40 43 46 48 44 43 45 50

GFSSGP_500_spd_189.txt.gz
Wind_Speed
12 8 12 14 20 17 15 16 17 17 12 15 20 17 19 14 14 13 13 10 9 9 7 6 6 7 7 7 9 10 10 10 9 8 8 9 8 10 10 10 9 9 9 8 8 9 9 10 10
11 8 11 12 17 13 13 12 14 16 16 15 14 16 15 15 11 10 12 10 9 9 7 5 6 7 7 7 8 7 7 7 6 6 5 6 6 9 8 8 8 8 8 7 8 8 8 8 8
8 6 7 9 14 11 11 12 13 13 12 10 10 12 13 11 8 7 7 9 9 7 6 3 4 6 6 5 6 5 5 5 5 4 5 5 5 7 6 9 8 8 9 9 10 9 7 7 5
6 5 5 12 12 12 12 11 11 11 11 12 10 14 12 10 5 6 10 12 12 9 6 6 5 4 5 4 4 3 3 5 4 3 4 5 3 7 5 6 8 8 7 8 8 7 6 4 4
5 6 3 8 11 14 13 13 11 10 10 9 12 15 11 11 2 8 13 8 10 9 7 5 4 4 3 2 3 3 7 7 7 10 3 5 7 2 5 8 8 7 8 9 10 11 11 11 8
9 7 5 8 11 11 12 11 12 11 12 10 11 15 16 12 13 13 17 12 6 5 5 2 3 2 2 3 4 8 12 8 11 11 10 13 13 2 3 5 11 12 12 14 13 13 13 12 13
7 5 5 8 10 11 11 11 11 11 11 12 10 12 15 14 13 14 13 14 13 8 4 0 0 0 4 5 7 10 14 12 10 13 13 13 12 7 7 8 15 15 17 9 10 20 9 6 10
4 5 7 9 11 10 10 10 9 10 10 11 12 12 15 18 13 8 9 10 9 5 2 2 2 3 2 5 7 11 10 9 9 11 13 13 11 10 8 12 13 6 8 10 13 17 19 14 14
4 4 9 11 12 12 11 10 10 11 12 12 12 14 11 14 15 8 10 12 8 6 2 2 2 1 4 6 7 6 7 6 8 9 11 10 10 13 12 11 10 12 15 16 13 13 16 15 14
4 5 9 13 13 12 10 9 8 8 8 9 11 12 12 11 16 12 11 12 8 4 1 4 3 5 7 7 9 6 6 8 8 9 9 11 12 15 19 15 11 10 10 12 12 14 14 13 13
6 8 10 12 12 9 7 6 7 7 7 7 8 10 15 14 15 14 12 11 10 8 6 5 6 6 7 6 6 10 10 8 7 9 8 10 12 15 17 19 12 11 13 14 13 14 13 12 12
6 7 9 10 10 9 5 5 5 4 5 5 6 9 11 17 16 17 15 14 13 8 10 4 6 5 5 3 7 9 8 8 7 8 10 10 11 13 15 15 16 14 13 12 12 12 11 11 12
9 9 9 8 8 7 4 4 4 3 2 4 6 8 10 12 14 14 14 14 11 14 7 8 9 8 8 11 9 10 9 7 3 5 8 10 11 12 14 15 15 14 13 13 13 13 11 10 10
10 11 10 7 5 5 4 2 3 3 5 4 5 8 11 14 17 17 17 15 16 11 10 13 11 10 13 14 12 11 11 13 13 10 10 11 12 13 15 16 16 16 16 16 14 15 14 14 14
4 10 12 7 4 4 4 4 3 2 5 4 3 7 13 18 18 16 17 16 15 15 16 14 15 14 15 15 13 12 16 18 19 17 14 13 12 14 14 16 16 17 16 16 17 17 16 15 16
5 5 9 9 6 4 6 6 4 3 6 6 5 5 14 19 17 17 16 16 18 18 19 18 17 17 16 16 14 14 15 17 18 18 16 15 15 14 15 12 15 17 20 19 17 17 19 18 16
6 9 9 7 6 4 5 6 7 4 6 7 6 6 13 18 19 20 20 20 19 21 22 20 19 18 18 16 14 15 14 16 16 17 14 13 14 15 16 15 15 15 17 17 17 17 17 17 17
10 11 12 9 8 6 6 7 9 7 5 7 8 9 13 18 21 22 22 21 22 21 21 20 20 20 18 16 15 15 14 15 15 16 17 15 13 15 17 16 15 15 16 16 16 16 15 15 16
15 14 14 12 12 9 9 9 10 11 8 7 10 11 13 17 21 22 22 23 25 23 23 22 20 19 18 16 17 16 14 14 14 16 18 17 17 21 23 22 20 19 19 20 21 19 18 17 18
15 16 16 16 16 12 13 14 12 11 10 10 12 12 14 17 19 21 21 24 26 24 23 22 20 19 18 17 17 15 14 14 15 16 18 19 20 22 24 27 29 27 24 22 19 20 20 19 16
12 16 20 17 16 13 17 17 15 13 11 10 10 13 12 13 17 18 17 24 25 25 25 23 21 20 17 17 15 13 14 15 14 15 17 19 20 23 25 29 28 27 26 23 23 22 21 19 17
15 12 13 20 17 18 19 15 14 14 13 12 11 12 12 12 17 18 20 27 29 27 25 23 22 20 17 15 12 11 15 14 14 17 19 20 23 23 26 27 30 34 31 29 27 29 27 23 20
12 18 18 24 22 21 17 13 13 15 13 13 13 14 14 13 20 20 23 26 27 26 25 24 21 18 15 12 11 12 13 14 16 18 20 21 23 23 24 26 29 33 37 32 28 30 32 32 28
20 21 14 24 25 21 19 16 13 12 13 13 14 14 18 17 18 20 22 24 24 23 23 22 19 16 13 11 10 11 12 13 16 18 19 21 24 25 27 29 30 32 35 37 33 30 31 30 32
31 26 21 25 29 23 21 18 13 10 13 15 14 15 19 22 21 20 21 21 21 21 20 18 16 15 12 9 10 11 11 13 15 17 17 19 21 25 27 29 32 35 37 37 38 35 32 33 36
33 30 30 31 30 24 24 20 13 9 11 13 12 17 23 24 23 22 22 21 20 19 17 16 14 12 10 7 8 10 12 14 14 15 14 17 20 24 26 28 31 34 38 38 39 39 34 33 34
41 40 29 30 34 28 27 22 15 8 15 18 13 22 25 25 24 21 20 19 17 17 15 12 10 9 7 5 7 9 12 12 12 12 13 15 19 21 23 26 29 33 37 39 40 40 37 34 38
44 34 37 36 40 34 31 24 17 11 18 18 16 24 25 24 22 20 19 17 15 13 11 10 8 7 4 4 5 9 10 10 11 11 11 16 18 21 23 25 29 32 36 39 41 42 37 36 40
48 46 44 38 41 35 32 24 18 14 20 18 18 22 24 18 18 18 17 15 14 12 10 8 6 5 3 4 5 7 8 10 10 10 12 15 17 20 24 26 28 33 37 39 42 43 39 38 38
45 44 43 44 43 40 36 28 24 20 17 19 20 21 21 20 17 17 17 15 14 12 10 8 6 4 2 2 4 6 8 10 9 9 10 13 16 19 22 27 29 33 37 39 42 44 40 37 39

GFSSGP_500_spd_192.txt.gz
Wind_Speed
7 8 10 12 15 19 15 13 15 14 12 18 21 16 12 12 12 10 8 9 8 8 9 9 8 8 9 10 12 12 11 11 10 8 10 11 10 10 10 9 7 7 7 8 9 10 11 10 10
7 8 10 14 14 14 12 15 13 8 13 19 19 16 16 13 12 11 8 7 8 8 9 9 7 8 8 8 9 10 10 10 10 9 8 6 2 5 4 7 7 7 8 8 9 7 6 6 7
7 8 8 14 11 10 12 14 16 13 13 13 13 17 14 13 11 10 11 9 8 7 8 8 7 9 6 6 7 8 8 7 8 5 5 4 5 4 4 4 7 7 7 7 7 5 5 6 3
4 6 7 11 11 11 10 13 13 10 11 14 16 14 13 8 4 9 11 9 8 7 8 7 7 6 4 4 5 6 8 6 8 9 5 5 6 6 6 3 5 5 6 8 9 7 8 8 5
3 4 6 5 9 11 12 11 12 10 10 12 15 17 14 10 4 7 13 10 8 8 8 9 6 4 4 3 4 6 8 6 5 8 6 6 8 5 3 4 7 8 8 14 15 13 10 12 10
3 3 5 4 9 10 12 11 12 9 8 7 13 16 15 11 6 10 12 10 9 7 6 6 5 3 3 2 5 6 6 6 8 9 8 9 8 5 2 5 10 12 13 13 13 19 7 9 12
2 2 2 5 8 10 11 12 12 10 9 8 9 15 15 10 11 12 19 10 10 10 7 4 4 3 2 6 6 6 7 7 7 9 11 12 11 7 5 6 10 7 5 10 12 17 14 13 11
4 2 3 5 8 10 9 11 11 12 12 10 11 12 13 13 13 15 14 12 11 8 5 3 3 2 4 5 5 6 5 6 6 11 13 15 15 12 7 10 11 11 15 12 13 13 16 15 15
5 4 3 6 7 8 9 9 11 11 11 10 8 12 12 14 11 8 9 13 10 6 5 5 5 4 4 6 6 5 6 7 9 11 13 15 16 19 16 15 17 16 15 13 13 13 14 13 13
3 4 6 8 9 8 9 8 8 8 10 11 12 12 12 11 11 8 11 13 9 5 5 7 6 5 5 9 7 7 8 10 10 10 11 13 16 19 17 15 14 15 14 12 11 12 12 12 12
1 4 6 8 8 7 6 6 6 7 9 11 14 13 16 16 15 11 15 14 10 5 9 5 5 4 6 7 7 8 9 9 9 10 10 13 14 14 15 16 14 13 12 12 12 12 10 10 10
5 5 8 7 7 6 5 3 4 5 6 7 10 13 14 16 16 16 16 13 9 7 9 4 4 4 4 2 7 8 8 7 7 11 11 11 10 12 13 13 12 12 11 10 9 8 7 7 9
6 8 10 10 8 7 5 4 4 5 7 8 9 10 13 13 15 15 15 13 10 12 10 5 6 6 9 8 8 10 10 5 7 9 10 9 11 12 12 14 15 16 14 14 14 12 10 9 11
7 10 9 6 4 2 1 1 2 4 5 8 10 11 10 16 16 16 16 14 14 12 10 10 10 10 12 11 11 13 14 11 11 12 9 10 11 12 13 17 18 16 14 13 12 13 12 13 13
4 6 5 6 4 2 3 3 3 4 5 6 6 10 12 17 20 18 16 15 20 12 14 14 12 13 13 12 12 16 17 17 15 12 11 12 12 11 12 14 14 15 13 13 13 14 13 12 14
3 4 3 3 4 3 4 4 5 4 5 5 5 7 14 20 21 15 16 18 16 16 16 16 15 15 13 12 13 15 17 15 14 11 10 12 13 13 13 13 14 15 14 14 14 14 15 15 15
5 6 8 7 6 4 5 6 7 4 4 5 4 5 14 18 17 17 18 18 18 19 18 18 16 16 13 14 13 14 14 13 11 10 9 10 9 12 14 16 16 15 15 15 15 15 15 15 14
11 12 12 14 13 10 8 7 9 7 3 3 5 6 15 19 19 20 23 22 21 22 22 19 18 16 15 15 13 13 12 11 10 11 8 9 12 14 17 18 16 16 15 16 16 15 16 16 15
17 13 14 14 16 13 10 9 8 10 5 5 6 9 12 16 19 22 24 23 25 23 21 21 19 16 16 14 13 12 10 10 12 11 10 13 16 19 21 22 22 21 21 20 17 16 16 16 15
14 13 13 17 15 14 12 11 9 10 7 6 8 11 14 18 21 23 24 24 25 24 23 22 19 18 17 14 12 11 10 12 13 12 15 16 17 19 23 26 25 23 21 20 21 21 18 14 12
18 11 16 17 16 12 13 12 12 11 9 8 9 12 16 16 19 21 24 26 25 24 23 22 21 18 16 13 11 10 11 12 13 15 16 17 18 19 22 26 29 27 23 20 22 22 25 24 21
21 15 21 25 21 6 15 8 16 14 11 11 9 11 14 14 15 17 22 24 25 25 24 22 20 18 15 13 10 10 12 14 15 16 16 18 18 19 22 26 28 30 30 28 24 23 24 24 23
19 21 22 22 22 19 14 16 9 15 14 13 12 11 13 15 15 14 24 28 27 27 25 23 20 17 13 12 10 11 13 15 16 16 19 19 20 22 25 27 29 30 29 30 30 25 24 25 28
24 23 23 19 19 19 14 17 9 13 14 14 13 13 14 19 17 16 24 29 30 28 25 22 18 15 13 12 11 12 13 13 15 16 16 18 21 22 25 27 29 31 31 31 32 30 27 28 33
36 28 19 16 19 14 22 21 19 13 13 15 16 17 17 21 20 20 24 27 27 26 23 19 15 14 12 11 10 11 12 12 13 15 15 18 20 21 22 24 26 30 32 32 34 34 30 28 31
38 31 22 21 17 18 22 21 14 17 15 17 19 20 21 24 24 23 24 25 26 25 21 17 14 13 11 10 10 11 10 10 12 13 14 16 17 18 20 22 25 28 31 33 34 35 33 29 30
40 40 26 20 20 19 18 21 19 14 18 19 20 21 23 25 26 25 23 23 23 23 20 16 13 12 10 9 9 9 8 9 10 11 11 14 16 17 19 21 24 27 31 33 35 36 34 31 30
43 37 34 29 24 25 19 23 16 13 9 18 16 22 27 29 27 25 22 21 21 21 18 14 13 11 9 8 8 8 8 8 10 9 10 12 13 14 17 21 24 27 31 34 36 37 36 34 32
46 45 42 28 26 25 22 19 16 14 14 20 18 28 27 26 26 24 22 20 19 17 15 13 11 10 9 7 7 7 8 9 9 10 9 10 11 13 17 21 24 28 30 35 37 38 38 35 33
46 45 41 34 34 30 25 19 25 18 17 22 20 25 27 26 26 23 22 20 18 16 14 12 11 9 8 6 5 6 7 9 9 10 9 10 13 16 17 20 26 30 30 36 38 39 39 35 35

GFSSGP_500_spd_195.txt.gz
Wind_Speed
6 10 14 15 14 11 8 9 10 8 14 18 16 17 17 8 10 8 9 9 8 8 9 10 10 11 9 9 9 9 8 6 8 6 6 5 4 7 8 11 10 9 8 9 9 8 7 7 8
6 9 11 12 7 11 12 10 8 7 14 15 14 13 14 14 10 10 7 6 7 8 8 9 9 8 7 8 8 10 9 8 9 7 6 5 7 9 7 10 9 8 8 8 8 7 5 4 5
8 10 16 9 10 8 8 11 8 9 14 13 14 11 10 10 10 8 7 6 6 7 6 8 8 5 6 8 9 10 10 9 11 11 9 5 8 6 1 6 6 6 8 9 10 10 9 8 5
7 7 8 8 4 8 8 8 7 10 11 14 13 13 11 6 2 5 6 7 6 6 6 7 5 5 7 6 8 8 10 9 10 11 9 9 9 16 7 4 6 8 9 12 19 16 13 11 9
10 4 11 9 6 9 10 11 8 8 9 11 13 12 13 8 1 5 8 6 5 6 7 5 5 6 6 6 6 8 7 6 8 10 9 10 9 4 4 5 7 9 11 16 14 15 11 11 11
9 12 5 7 7 6 8 12 8 4 4 8 12 14 16 8 2 5 9 7 7 4 5 5 6 6 5 6 5 7 6 6 9 11 11 8 6 1 6 7 10 13 11 7 14 17 13 7 8
5 4 5 2 6 6 7 8 10 7 6 5 10 13 14 8 6 8 10 4 7 8 5 5 6 5 5 4 5 7 7 8 10 12 12 11 9 7 8 9 6 6 7 12 14 16 16 15 13
5 10 3 3 5 3 10 10 10 7 7 6 3 9 9 7 7 10 11 7 8 6 5 4 5 5 3 4 7 8 8 8 8 11 15 17 15 13 12 19 18 16 12 12 13 14 14 13 13
10 13 3 3 2 5 11 11 12 10 9 8 5 6 6 8 11 9 10 12 8 5 6 6 5 5 6 8 8 9 8 8 10 11 14 16 16 16 15 15 15 13 10 10 12 13 13 13 15
5 0 4 6 12 12 11 8 9 10 10 9 8 6 8 11 7 7 10 13 8 5 8 7 6 6 8 9 10 9 8 8 10 11 13 15 17 18 12 12 12 11 11 11 11 10 10 11 12
2 5 5 3 5 3 4 3 3 4 8 10 11 11 10 11 10 8 15 12 8 6 7 7 6 6 5 9 8 7 8 10 11 9 10 12 12 11 8 11 11 11 10 10 10 10 10 10 9
4 8 6 4 6 4 4 2 2 5 6 6 10 13 12 12 12 11 15 12 6 5 6 6 5 4 2 5 8 7 8 8 10 10 10 9 9 10 11 11 12 12 11 10 9 8 9 8 9
3 7 6 7 8 5 3 1 2 4 6 8 9 11 12 12 15 14 15 11 8 7 8 5 5 3 4 6 10 10 9 9 8 9 9 8 8 11 13 15 15 14 14 13 14 13 12 11 12
11 4 6 8 6 5 2 1 3 4 7 9 11 11 12 15 15 15 12 11 11 10 7 9 7 7 8 11 12 14 14 12 10 10 8 8 10 11 14 16 17 16 15 15 14 12 12 12 13
7 4 4 6 5 4 3 5 4 6 6 8 10 12 13 15 17 16 12 12 13 9 10 11 9 9 11 11 13 14 15 13 11 9 9 9 12 14 16 17 19 17 16 14 14 14 13 11 11
8 7 5 14 7 5 4 7 7 7 7 7 9 10 15 16 21 15 14 14 17 9 13 12 12 11 11 12 13 12 10 10 8 5 7 11 13 13 14 15 15 16 15 13 12 11 11 11 11
6 8 16 4 10 7 6 14 8 8 9 7 7 10 13 17 17 17 18 18 18 13 14 14 14 13 12 12 11 10 9 8 6 4 8 10 10 12 15 17 16 15 14 14 13 12 12 11 10
13 10 9 11 21 9 7 9 7 9 9 8 6 8 11 15 21 21 21 19 17 18 16 16 16 14 13 11 9 7 8 8 6 6 8 9 15 18 18 18 18 18 18 17 17 17 14 14 14
21 17 13 13 14 13 8 8 9 9 8 8 5 7 11 16 19 20 20 19 19 20 20 19 17 16 13 10 7 7 7 6 6 6 8 12 14 17 19 18 18 19 19 20 21 20 20 19 17
25 7 17 11 22 18 9 13 16 6 8 9 7 6 11 15 16 19 21 20 22 23 20 20 19 17 14 11 8 7 7 7 6 8 11 14 16 18 20 21 21 20 19 19 19 19 19 19 21
21 17 13 12 17 17 11 10 13 12 10 8 7 6 10 14 17 21 22 23 23 22 22 22 20 17 14 10 8 7 7 7 7 10 12 14 16 19 23 24 25 25 24 21 19 18 19 22 24
22 19 18 17 16 11 23 11 9 19 11 10 5 7 10 13 17 20 22 25 24 23 24 23 20 16 13 10 7 7 8 8 10 11 15 15 17 20 23 24 25 26 27 26 24 20 19 22 25
27 19 20 18 15 15 18 13 7 25 12 12 10 9 11 14 16 19 22 25 24 23 24 23 18 14 11 9 8 8 9 9 10 13 14 15 17 20 22 24 26 27 28 28 28 26 21 22 25
26 22 20 20 15 19 17 19 11 18 17 15 14 12 11 14 16 20 25 27 24 24 24 21 17 14 12 10 9 11 11 10 10 11 13 14 17 19 21 23 25 27 28 28 29 28 26 25 24
31 27 26 20 20 18 18 21 21 23 15 17 16 16 14 14 15 16 28 27 25 25 23 19 15 14 12 10 10 12 12 10 10 10 12 15 16 17 19 21 23 25 28 30 31 31 29 26 24
35 33 29 22 15 15 27 22 24 11 14 16 17 18 16 16 17 18 27 31 30 27 23 18 16 13 12 11 10 11 10 9 9 9 11 13 14 15 16 19 21 24 27 31 33 33 31 27 25
35 41 32 24 22 17 35 12 16 16 18 16 18 19 19 20 20 22 27 30 30 28 23 19 15 13 11 10 9 9 9 9 8 8 9 11 10 11 14 18 21 25 27 29 34 35 33 29 27
39 33 36 32 29 31 23 22 19 16 14 17 22 21 21 25 24 25 27 27 27 26 22 18 15 13 11 9 8 9 9 9 8 8 8 8 7 8 11 14 20 24 28 28 33 35 35 30 28
47 40 37 29 27 27 22 8 17 16 14 26 23 22 24 27 27 26 27 26 26 24 20 17 15 12 10 8 8 9 10 10 10 8 7 6 9 13 15 15 20 24 29 31 33 37 35 31 29
47 43 37 36 32 27 25 18 18 24 29 21 21 19 21 31 29 27 27 27 25 22 20 17 15 13 12 9 8 9 11 11 11 9 7 7 9 11 14 17 20 24 29 32 35 39 36 31 29